Temperature
18 17 16 16 15 15 14 14 14 13 13 13 13 13 12 12 12 12 11 11 11 11 11 11 11 11 11 11 11 11 11 11 11 11 12 12 12 12 13 13 13 13 13
18 17 17 16 15 15 15 14 14 13 13 13 13 13 12 12 12 12 11 11 11 11 11 11 11 11 11 11 11 11 11 10 10 11 11 11 12 12 12 12 13 13 13
18 17 17 16 16 15 15 14 14 14 13 13 13 12 12 12 12 12 11 11 11 11 11 11 10 10 10 10 10 10 10 10 10 10 10 11 11 11 12 12 12 12 13
18 17 17 16 16 15 15 14 14 14 13 13 13 12 12 12 12 12 11 11 11 11 11 10 10 10 10 10 10 10 10 10 10 10 10 10 11 11 11 11 12 12 12
18 17 17 16 16 15 15 15 14 14 13 13 13 13 12 12 12 12 11 11 11 11 10 10 10 10 10 10 9 9 9 9 9 9 10 10 10 10 11 11 11 11 12
18 18 17 17 16 16 15 15 14 14 13 13 13 13 12 12 12 11 11 11 11 11 10 10 10 10 10 9 9 9 9 9 9 9 9 9 10 10 10 10 10 10 11
18 18 17 17 16 16 15 15 14 14 14 13 13 13 13 12 12 12 11 11 11 11 10 10 10 10 10 9 9 9 9 9 9 9 9 9 9 10 10 10 10 10 10
18 18 17 17 16 16 15 15 15 14 14 14 13 13 13 13 12 12 11 11 11 11 10 10 10 10 10 9 9 9 9 9 9 9 9 9 9 9 9 9 9 9 10
19 18 18 17 16 16 16 15 15 15 14 14 13 13 13 13 12 12 11 11 11 11 11 10 10 10 10 9 9 9 9 9 9 9 9 9 9 9 9 9 9 9 9
19 19 18 17 17 16 16 16 15 15 14 14 14 13 13 13 13 12 12 11 11 11 11 10 10 10 9 9 9 9 9 9 8 8 8 8 8 8 8 8 8 8 9
19 18 18 17 17 16 16 15 15 15 14 14 14 14 13 13 13 12 12 11 11 11 11 10 10 9 9 9 9 9 9 8 8 8 8 8 8 8 8 8 8 8 8
18 18 17 17 16 16 16 15 15 15 14 14 14 14 14 13 13 12 12 12 11 11 11 10 10 9 9 9 9 9 8 8 8 8 8 8 8 8 8 8 8 8 8
18 17 17 16 16 15 15 15 15 14 14 14 14 14 14 13 13 13 12 12 11 11 11 10 10 9 9 9 9 8 8 8 8 8 8 8 8 8 8 8 8 8 8
17 17 16 16 15 15 15 14 14 14 14 14 13 13 13 13 13 13 12 12 11 11 11 10 10 9 9 9 9 9 8 8 8 8 8 8 8 8 8 8 8 8 8
16 16 15 15 15 14 14 14 13 13 13 13 13 13 13 13 13 13 12 12 11 11 10 10 10 9 9 9 9 9 9 8 8 8 8 8 8 8 8 8 8 8 8
15 15 14 14 14 13 13 13 13 13 13 13 13 13 13 13 13 13 12 12 11 11 10 10 10 10 9 9 9 9 9 9 8 8 8 8 8 8 8 8 8 8 8
14 13 13 13 13 13 12 12 12 13 13 13 13 13 13 13 13 12 12 12 11 11 10 10 10 10 9 9 9 9 9 9 8 8 8 8 8 8 8 8 8 8 8
12 12 12 12 12 12 12 12 12 12 12 12 12 12 12 12 13 12 12 11 11 11 11 10 10 10 9 9 9 9 9 9 9 8 8 8 8 8 8 8 8 8 8
12 11 11 11 11 11 11 11 11 11 11 11 12 12 12 12 12 12 12 11 11 11 11 10 10 10 9 9 9 9 9 9 9 9 8 8 8 8 8 8 8 8 8
11 11 10 10 10 10 10 10 10 10 11 11 11 11 11 11 12 11 11 11 11 11 10 10 10 10 9 9 9 9 9 8 9 9 9 8 8 8 8 8 8 8 8
10 10 10 10 10 10 9 10 10 10 10 10 10 11 11 11 11 11 11 11 11 10 10 10 10 10 9 9 9 9 8 8 8 8 8 8 8 8 8 8 8 8 8
10 9 9 9 9 9 9 9 9 9 9 9 10 10 10 10 11 11 10 10 10 10 10 10 10 9 9 9 9 9 8 8 8 8 8 8 8 8 8 8 8 8 8
9 9 9 9 9 8 8 8 9 9 9 9 9 9 10 10 10 10 10 10 10 10 9 9 9 9 9 9 9 8 8 8 8 8 8 8 8 8 8 8 8 8 8
9 9 8 8 8 8 8 8 8 8 8 8 8 9 9 9 9 9 9 9 9 9 9 9 9 9 9 8 8 8 8 8 8 8 8 8 8 8 8 8 8 8 9
9 8 8 8 8 7 7 7 7 8 8 8 8 8 9 9 9 9 9 9 9 9 9 9 9 9 8 8 8 8 8 8 8 8 8 8 8 8 8 8 8 8 9
8 8 7 7 7 7 7 7 7 7 7 7 7 8 8 8 8 8 8 8 8 8 8 8 8 8 8 8 8 8 7 7 7 8 8 8 8 8 8 8 8 8 8
Wind_Speed
10 8 8 7 7 7 6 6 5 4 4 4 4 4 4 4 4 4 5 5 5 6 5 5 6 5 5 4 4 4 4 4 6 5 4 4 4 6 7 9 10 10 12
10 9 9 8 7 7 6 6 5 5 5 5 5 5 5 5 5 5 6 5 6 6 6 6 7 5 5 5 4 5 5 5 5 7 5 4 5 6 6 6 6 9 10
9 9 8 8 8 7 7 6 6 6 6 5 5 5 6 6 6 6 6 6 6 6 6 6 7 6 6 6 6 6 6 6 5 5 5 4 4 4 5 5 5 4 7
9 9 9 9 9 8 8 7 7 7 6 6 6 7 7 6 6 6 6 6 6 6 6 6 7 7 8 8 7 7 6 6 5 5 5 5 4 4 3 4 5 4 4
10 10 10 9 9 8 8 7 7 7 7 7 6 6 6 6 6 6 6 6 6 6 6 7 7 9 11 9 7 7 7 6 5 5 5 4 4 4 4 3 4 4 5
11 10 9 9 8 8 8 8 7 7 7 6 7 7 7 6 9 10 8 7 6 7 7 7 8 9 11 12 12 11 10 8 7 6 6 6 7 6 5 5 4 3 4
11 10 9 9 9 9 8 8 8 8 7 7 7 7 8 9 12 13 13 8 8 8 8 7 8 8 9 7 9 11 10 12 13 9 8 9 8 7 6 6 6 6 6
11 10 9 9 9 9 8 8 8 6 7 7 8 8 8 10 13 14 14 9 8 9 9 9 9 9 10 9 8 8 9 9 9 8 9 10 10 9 8 8 7 6 6
11 11 10 10 9 9 9 9 7 6 7 7 7 8 9 10 13 14 13 6 7 9 9 9 9 9 12 13 9 9 9 9 11 13 13 12 14 14 10 5 5 5 6
13 12 10 10 10 10 10 9 7 7 8 8 8 9 9 10 13 15 13 6 8 8 8 8 12 12 12 12 8 8 9 10 8 8 8 8 9 10 12 9 8 7 6
9 8 8 9 10 10 9 7 7 7 8 8 9 9 9 11 13 16 14 8 8 8 7 7 8 12 13 13 10 8 12 10 7 7 7 7 7 7 7 8 9 9 9
7 7 7 8 7 7 7 7 7 8 8 9 9 9 9 10 12 13 15 15 13 9 9 8 8 13 14 13 10 11 15 11 6 6 7 8 8 8 8 8 9 10 11
6 6 5 6 6 6 6 7 6 6 7 8 8 9 10 8 9 15 16 16 16 10 9 12 12 13 12 11 14 16 13 8 7 7 9 10 9 8 7 6 7 8 9
5 5 4 4 5 6 6 6 6 7 8 9 9 10 10 8 7 7 7 8 10 10 9 9 12 13 11 12 12 11 8 8 8 9 8 9 7 6 7 6 6 6 6
4 4 4 5 5 6 6 7 8 9 10 11 10 10 9 10 12 14 10 8 8 7 5 3 4 5 6 7 7 8 7 7 9 9 9 9 8 8 8 7 6 6 6
3 3 4 4 5 5 6 8 12 14 17 18 19 16 12 15 16 15 16 16 13 9 5 5 6 7 8 9 8 8 7 8 9 9 9 9 9 9 8 7 6 7 8
2 3 3 4 5 6 6 7 10 11 14 16 18 18 18 18 17 15 15 13 11 11 6 7 8 9 9 9 9 9 9 8 8 8 9 9 9 9 8 8 7 7 8
3 4 5 5 6 6 7 8 8 9 10 10 12 15 16 17 17 15 12 8 5 7 7 9 9 9 9 9 9 9 9 8 7 8 9 9 9 8 8 8 8 8 8
4 4 5 5 6 7 7 8 8 9 9 10 9 9 12 12 11 11 10 7 8 9 9 10 10 9 9 9 9 9 9 8 8 7 7 8 8 8 8 9 8 11 9
5 8 8 6 6 7 7 8 8 9 9 8 8 9 6 4 4 5 6 8 9 9 9 9 9 9 9 9 8 8 8 8 8 7 7 7 7 7 8 9 8 8 8
4 7 10 8 7 8 8 8 8 8 8 8 8 9 10 7 8 8 8 8 9 10 9 9 8 8 8 7 7 7 8 7 7 7 7 7 6 7 7 7 7 7 7
4 5 6 7 7 8 8 8 8 8 9 9 9 9 11 7 7 7 8 8 8 8 8 7 7 7 7 7 6 6 6 6 6 6 6 5 5 6 6 6 6 6 6
5 6 7 7 7 9 8 7 7 8 9 9 9 8 6 6 7 7 8 7 6 6 6 6 6 6 5 5 5 5 5 6 6 5 5 5 5 5 5 6 7 6 7
6 7 7 7 7 7 7 8 8 9 9 8 8 7 7 6 6 7 6 5 5 5 4 4 4 5 5 3 3 3 3 4 4 5 6 6 5 5 5 5 6 7 7
6 6 7 7 7 7 7 7 8 9 9 8 8 7 6 6 5 4 4 4 3 3 3 3 2 2 3 3 2 2 3 4 4 4 5 5 6 6 5 5 5 5 6
6 6 6 6 6 7 7 7 8 9 8 8 7 6 5 4 3 3 2 2 2 2 2 2 2 2 2 1 2 3 4 5 5 5 5 5 6 5 5 4 5 5 6
Wind_Direction
168 167 163 171 174 172 176 190 195 202 202 205 217 228 241 252 254 247 251 254 252 261 266 258 261 260 259 259 253 244 233 213 249 271 259 274 284 287 295 293 284 273 267
172 170 172 175 174 178 190 202 200 204 211 213 218 227 240 245 246 244 251 251 243 250 257 257 261 264 259 257 253 251 248 233 231 265 277 279 274 276 277 282 280 274 264
171 171 176 180 182 192 202 206 205 207 215 221 220 228 240 245 245 243 241 246 245 245 248 248 255 256 259 258 253 252 252 256 232 242 265 265 273 279 287 287 281 276 271
171 174 181 190 193 199 203 205 208 209 214 223 225 231 236 239 240 243 244 243 245 248 248 247 249 246 249 252 254 249 249 253 248 246 258 266 269 279 278 283 295 287 281
170 179 191 195 196 198 203 209 214 216 221 221 226 234 236 235 236 233 234 236 239 249 255 253 253 256 255 252 252 244 241 241 245 246 256 265 268 275 268 263 273 286 283
174 187 192 191 194 200 207 213 217 224 228 225 227 233 238 240 237 231 222 229 235 242 253 260 265 268 269 268 266 259 240 232 232 235 243 245 254 250 251 254 261 279 288
182 188 189 191 198 207 211 211 218 223 225 227 232 234 239 245 248 248 240 226 232 239 245 255 268 270 271 267 271 275 267 252 235 226 234 242 246 241 240 253 248 243 249
188 194 195 195 204 209 209 215 219 218 220 228 235 238 243 250 249 250 247 232 234 242 242 244 250 263 269 261 262 265 260 259 249 239 232 240 243 239 230 237 244 254 259
196 202 203 199 203 207 213 220 220 217 225 228 233 238 243 254 254 253 245 227 237 247 248 247 244 253 263 266 258 256 263 266 264 252 241 242 246 246 236 234 243 244 262
205 207 204 200 203 210 215 218 217 217 228 232 240 241 241 250 255 253 241 220 237 251 255 252 250 250 258 265 247 243 255 261 263 269 265 264 258 256 250 230 227 233 241
205 201 201 203 208 214 219 220 222 226 234 239 245 249 247 249 256 255 243 215 227 241 250 254 251 249 253 258 248 235 246 254 257 253 259 263 263 255 250 237 227 225 228
185 192 202 209 215 218 219 230 231 230 239 247 251 260 259 256 252 253 244 229 223 226 241 247 249 253 253 255 254 249 254 259 252 251 257 260 258 257 252 243 235 232 231
173 192 207 216 224 224 222 233 239 237 241 250 250 256 262 257 251 247 245 239 230 225 239 243 249 257 261 262 259 258 259 250 238 245 252 256 251 250 251 252 251 242 241
182 202 210 221 239 244 242 239 242 246 249 254 254 255 258 256 251 247 238 236 235 234 242 252 259 264 261 258 263 265 251 236 232 241 247 252 250 246 247 246 250 246 244
194 213 227 235 245 256 259 253 252 251 248 248 254 250 249 254 250 231 218 222 218 221 214 243 256 262 263 262 262 259 250 239 238 241 244 250 250 248 250 240 236 232 233
213 246 256 259 263 267 275 283 268 262 267 258 253 252 253 247 250 241 228 224 215 189 178 233 250 254 257 261 263 264 254 244 241 238 239 241 244 245 249 243 228 227 234
253 266 270 273 274 276 275 277 288 291 281 272 264 260 252 253 251 243 233 224 209 178 201 238 248 253 255 256 256 257 258 252 241 237 238 239 238 239 240 240 234 231 235
319 296 287 278 277 277 276 276 275 283 290 288 280 269 260 254 250 243 225 187 202 202 225 238 246 250 252 254 255 256 258 257 248 242 239 237 234 233 234 236 232 230 233
333 317 302 292 286 283 282 281 281 283 280 280 282 283 274 265 255 240 194 196 223 229 230 237 243 246 249 251 253 254 253 254 251 243 239 235 231 226 231 233 231 230 227
325 319 319 306 299 297 294 291 289 287 283 278 276 275 272 255 245 231 208 216 229 239 239 240 244 245 247 251 252 251 253 254 253 247 243 239 230 224 228 229 227 225 223
310 311 315 314 303 296 294 292 290 288 286 281 278 275 260 242 242 237 228 223 227 235 239 241 244 246 247 249 249 248 247 253 252 247 246 241 231 226 227 227 227 223 218
290 294 299 299 298 296 296 295 293 293 292 290 286 283 269 250 241 239 236 233 231 232 234 237 241 241 242 242 241 241 244 251 253 249 246 242 234 229 227 225 225 223 216
284 291 295 296 297 298 302 301 299 294 290 288 286 279 268 255 248 243 241 239 239 239 235 230 235 245 247 240 235 234 240 248 249 250 250 249 242 234 228 227 223 219 215
281 288 293 298 299 299 301 302 301 299 296 293 288 279 269 259 256 252 246 244 239 236 232 228 229 241 251 250 238 234 245 257 261 258 256 251 246 238 229 229 225 220 219
282 287 292 295 299 301 301 302 301 300 298 295 288 282 273 263 263 258 250 241 227 222 225 225 222 232 243 244 243 260 278 283 282 281 269 257 250 241 231 229 227 219 210
286 290 294 298 301 303 304 303 302 301 300 299 297 292 285 278 276 276 269 257 243 229 220 213 220 223 232 243 262 284 287 289 290 288 279 265 256 248 236 233 231 221 211
Height
1527 1527 1528 1529 1529 1529 1529 1529 1529 1529 1530 1530 1529 1529 1528 1528 1527 1526 1526 1525 1524 1523 1522 1521 1520 1520 1519 1518 1518 1517 1517 1516 1513 1511 1512 1512 1512 1512 1512 1512 1512 1512 1512
1524 1525 1525 1526 1526 1526 1526 1526 1527 1527 1527 1527 1526 1526 1525 1525 1524 1523 1522 1521 1520 1519 1518 1517 1516 1515 1514 1514 1513 1512 1511 1511 1509 1507 1506 1506 1506 1506 1506 1506 1506 1506 1506
1520 1521 1522 1523 1523 1523 1523 1524 1524 1524 1524 1523 1523 1522 1522 1521 1520 1519 1518 1517 1516 1515 1514 1513 1512 1511 1509 1509 1508 1507 1506 1505 1504 1502 1501 1501 1501 1501 1500 1500 1500 1500 1500
1517 1518 1519 1519 1520 1520 1521 1521 1521 1520 1520 1520 1520 1519 1518 1518 1516 1515 1514 1513 1512 1511 1510 1508 1507 1505 1504 1503 1502 1501 1500 1499 1499 1498 1496 1496 1496 1496 1495 1495 1494 1495 1494
1513 1514 1515 1516 1517 1517 1517 1517 1517 1517 1517 1517 1516 1515 1515 1514 1512 1511 1510 1509 1507 1506 1505 1503 1501 1499 1498 1497 1496 1495 1495 1494 1493 1492 1491 1491 1490 1490 1490 1490 1489 1488 1488
1510 1511 1512 1513 1513 1514 1514 1514 1514 1514 1513 1513 1512 1511 1510 1509 1508 1507 1506 1504 1503 1501 1499 1497 1495 1494 1492 1491 1490 1489 1489 1488 1487 1487 1486 1485 1484 1485 1485 1485 1484 1483 1482
1506 1508 1509 1509 1510 1510 1510 1510 1510 1510 1509 1508 1508 1507 1506 1504 1503 1502 1501 1500 1498 1496 1494 1492 1490 1488 1487 1485 1484 1484 1483 1483 1482 1481 1480 1479 1479 1479 1479 1478 1478 1477 1477
1503 1504 1505 1505 1506 1506 1506 1506 1506 1506 1505 1504 1503 1502 1501 1500 1499 1497 1496 1495 1493 1491 1489 1487 1485 1483 1482 1480 1479 1477 1476 1476 1476 1475 1474 1473 1472 1472 1473 1472 1472 1471 1470
1498 1500 1501 1501 1502 1502 1502 1502 1502 1501 1500 1499 1498 1497 1496 1494 1494 1492 1491 1489 1487 1486 1484 1482 1480 1478 1476 1475 1473 1471 1470 1469 1469 1468 1467 1466 1465 1465 1466 1465 1465 1465 1463
1494 1495 1497 1497 1498 1498 1498 1497 1497 1496 1495 1494 1493 1492 1490 1489 1488 1487 1486 1484 1482 1480 1478 1476 1474 1472 1470 1469 1467 1465 1463 1462 1462 1461 1460 1459 1458 1458 1458 1458 1458 1458 1457
1490 1491 1492 1493 1493 1493 1493 1493 1492 1491 1490 1489 1487 1486 1485 1483 1482 1481 1480 1478 1476 1473 1472 1470 1468 1466 1464 1462 1461 1459 1457 1456 1454 1453 1452 1451 1450 1450 1450 1450 1450 1450 1450
1485 1486 1487 1488 1489 1489 1488 1487 1486 1486 1484 1483 1481 1480 1478 1477 1476 1475 1473 1472 1470 1467 1465 1463 1461 1459 1457 1456 1454 1452 1451 1449 1447 1446 1444 1443 1442 1441 1441 1441 1441 1442 1442
1481 1482 1483 1484 1484 1484 1483 1482 1481 1480 1478 1476 1475 1473 1471 1470 1469 1468 1467 1465 1463 1461 1458 1456 1454 1452 1450 1448 1447 1445 1444 1442 1440 1438 1437 1435 1435 1434 1434 1433 1433 1434 1434
1478 1479 1479 1479 1479 1478 1477 1476 1475 1473 1472 1470 1468 1466 1464 1463 1462 1461 1459 1458 1456 1454 1451 1449 1447 1445 1443 1441 1439 1438 1436 1435 1433 1431 1430 1429 1428 1427 1426 1426 1426 1427 1427
1475 1475 1475 1474 1474 1473 1471 1470 1468 1467 1466 1463 1461 1459 1457 1455 1454 1454 1452 1450 1449 1447 1444 1442 1440 1438 1436 1434 1432 1430 1429 1427 1426 1424 1423 1422 1421 1420 1420 1420 1420 1420 1420
1471 1471 1470 1469 1468 1467 1465 1463 1461 1460 1458 1456 1453 1452 1449 1448 1446 1445 1444 1442 1441 1439 1437 1435 1433 1431 1429 1426 1425 1423 1421 1420 1418 1417 1416 1415 1414 1413 1413 1413 1413 1414 1414
1467 1466 1465 1464 1463 1461 1459 1456 1453 1451 1449 1447 1445 1443 1441 1440 1438 1437 1436 1434 1433 1431 1429 1427 1426 1424 1422 1420 1418 1416 1414 1413 1411 1410 1409 1408 1407 1406 1406 1406 1406 1407 1407
1463 1462 1461 1459 1457 1455 1452 1450 1447 1444 1440 1438 1437 1435 1433 1431 1430 1428 1428 1426 1424 1423 1421 1420 1418 1417 1415 1413 1411 1409 1407 1406 1404 1403 1402 1401 1400 1399 1399 1399 1400 1400 1401
1460 1458 1456 1454 1451 1448 1445 1443 1440 1437 1433 1430 1428 1426 1425 1423 1422 1420 1419 1417 1416 1415 1414 1412 1411 1409 1408 1406 1404 1403 1401 1399 1397 1396 1395 1394 1393 1393 1392 1392 1393 1394 1395
1456 1454 1451 1448 1445 1442 1438 1435 1432 1429 1426 1423 1420 1418 1416 1415 1413 1412 1411 1409 1409 1408 1407 1405 1404 1403 1401 1399 1398 1396 1394 1392 1391 1389 1388 1387 1387 1386 1386 1386 1386 1387 1388
1452 1449 1446 1443 1439 1435 1432 1429 1425 1422 1418 1415 1412 1411 1409 1407 1405 1404 1403 1402 1401 1400 1399 1398 1397 1396 1394 1393 1391 1389 1388 1386 1385 1383 1382 1381 1380 1380 1380 1380 1380 1381 1382
1448 1444 1440 1437 1433 1429 1426 1422 1418 1415 1411 1408 1405 1403 1401 1399 1397 1396 1395 1394 1393 1392 1392 1391 1390 1389 1388 1386 1385 1383 1382 1380 1379 1378 1377 1376 1375 1374 1374 1375 1375 1376 1377
1442 1438 1435 1431 1427 1423 1419 1416 1412 1408 1404 1401 1398 1395 1393 1392 1390 1389 1387 1386 1386 1385 1385 1384 1384 1383 1382 1380 1379 1377 1376 1375 1374 1373 1371 1370 1370 1369 1369 1370 1370 1371 1372
1437 1433 1429 1425 1422 1418 1413 1409 1405 1401 1397 1394 1391 1388 1386 1384 1383 1381 1380 1380 1379 1379 1379 1379 1378 1377 1376 1375 1373 1372 1371 1369 1368 1367 1366 1365 1365 1365 1365 1365 1366 1367 1368
1431 1427 1423 1419 1416 1411 1407 1403 1399 1395 1391 1387 1384 1381 1379 1378 1376 1375 1374 1374 1374 1374 1374 1374 1373 1372 1371 1370 1369 1367 1365 1364 1363 1362 1361 1360 1360 1360 1360 1361 1361 1362 1364
1425 1421 1417 1414 1410 1405 1401 1397 1393 1389 1385 1381 1378 1376 1374 1372 1371 1370 1370 1370 1370 1370 1369 1369 1368 1368 1367 1365 1364 1362 1361 1359 1358 1357 1356 1355 1355 1355 1356 1356 1357 1358 1360